Location: West Cummington
(42.4920°N, 72.9680°W)
Time: 23:30:42
(UTC-05:00)

Daily predictions for brighter satellites

Satellite Brightness Start Highest point End
(mag) Time Altitude Azimuth Time Altitude Azimuth Time Altitude Azimuth
Cosmos 2218 Rocket 4.4 17:11:16 10° N 17:17:03 41° ENE 17:22:48 10° SE
Meteor 2-14 Rocket 4.4 17:12:02 10° N 17:18:09 71° E 17:24:11 10° SSE
Meteor 2-10 3.9 17:16:56 10° N 17:21:58 67° ENE 17:27:03 10° SSE
COSMO-SKYMED 1 3.4 17:20:36 10° NNE 17:24:29 31° E 17:28:21 10° SSE
Cosmos 1992 Rocket 4.4 17:19:39 10° SSW 17:24:49 70° WNW 17:30:03 10° NNE
Cosmos 1076 Rocket 3.7 17:22:20 10° S 17:26:34 54° E 17:30:52 10° NNE
Cosmos 1346 Rocket 4.1 17:25:01 10° NNE 17:27:53 19° ENE 17:30:42 10° ESE
KORONAS-FOTON 4.3 17:24:25 10° SSW 17:28:11 64° W 17:31:58 10° N
Cosmos 1295 Rocket 4.5 17:22:27 10° N 17:28:36 87° E 17:34:45 10° S
Cosmos 1315 Rocket 3.3 17:27:12 10° SSE 17:30:49 36° E 17:34:26 10° NNE
ATLAS 2AS CENTAUR R/B 3.6 17:23:48 10° NW 17:31:34 61° WSW 17:38:40 10° SSE
USA 116 4.1 17:29:19 10° NNE 17:33:39 68° ESE 17:38:28 10° S
H-2A R/B 4.3 17:32:21 10° ESE 17:34:38 15° ENE 17:36:56 10° NNE
Geosat 4.1 17:31:21 10° NNE 17:36:26 87° WNW 17:41:27 10° SSW
Cosmos 1943 3.9 17:31:13 10° SW 17:36:44 56° WNW 17:42:17 10° NNE
Cosmos 968 Rocket 3.5 17:32:13 10° NNW 17:37:24 86° WSW 17:42:30 10° SSE
Cosmos 2228 Rocket 4.4 17:34:13 10° NNE 17:37:33 20° ENE 17:40:53 10° ESE
Cosmos 44 Rocket 3.8 17:34:09 10° S 17:38:27 38° ESE 17:42:49 10° NE
Cosmos 1455 3.7 17:39:46 10° NNE 17:42:19 17° ENE 17:44:51 10° ESE
Cosmos 1328 Rocket 4.3 17:42:32 10° NNE 17:46:21 29° ENE 17:50:08 10° SE
BREEZE M DEB (TANK) 4.3 17:44:14 10° WSW 17:48:54 82° NNW 18:06:06 14° ENE
IRS-1A Rocket 4.3 17:46:41 10° SSE 17:52:14 88° WSW 17:57:55 10° NNW
Cosmos 2366 rocket 3.9 17:46:37 10° N 17:52:52 71° E 17:59:00 10° SSE
Cosmos 2098 Rocket 4.2 17:49:03 10° N 17:54:04 41° E 18:00:09 10° SSE
NOSS 3-4 (A) 3.8 17:47:27 10° NNW 17:54:27 67° NE 18:01:58 10° SE
NOSS 3-4 (C) 3.8 17:47:34 10° NNW 17:54:33 66° NE 18:02:04 10° SE
SeaSat 1 4.5 17:50:22 10° S 17:54:45 32° WSW 17:59:10 10° NW
Cosmos 1328 3.7 17:51:59 10° S 17:55:58 70° E 18:00:00 10° NNE
Cosmos 1400 Rocket 4.0 17:54:48 10° SSW 17:58:43 46° WNW 18:02:42 10° N
Tiangong 1 0.8 17:57:58 10° W 18:00:26 60° SSW 18:01:43 23° ESE
ALOS 2.2 17:56:10 10° SSE 18:00:48 72° ENE 18:05:28 10° N
EO 1 Del DPAF 3.5 17:57:22 10° NNE 18:01:05 45° E 18:04:46 10° S
Cosmos 1766 Rocket 3.4 17:57:30 10° S 18:01:48 75° E 18:06:08 10° NNE
Cosmos 1626 2.1 17:58:51 10° S 18:02:28 56° E 18:06:08 10° NNE
Landsat 4 3.6 18:02:33 10° NNE 18:06:19 75° ESE 18:10:01 10° S
MOS 1 4.2 18:03:39 10° SSE 18:09:18 86° ENE 18:14:58 10° NNW
Meteor 2-2 Rocket 4.2 18:03:44 10° N 18:09:30 85° E 18:15:09 10° S
Envisat 4.5 18:11:10 18° NE 18:11:10 18° NE 18:13:33 10° NNE
MONITOR-E 4.2 18:07:14 10° S 18:10:16 81° WSW 18:13:21 10° NNW
Nadezhda 3 Rocket 4.3 18:05:54 10° SSE 18:11:51 45° E 18:17:52 10° NNE
NOAA 12 4.0 18:06:39 10° SSE 18:11:52 79° ENE 18:17:09 10° N
SKYMED 2 3.7 18:08:18 10° N 18:12:39 77° WNW 18:16:59 10° SSW
Cosmos 1656 Rocket 3.7 18:07:52 10° NNW 18:13:22 86° WSW 18:18:55 10° SSE
Cosmos 1703 3.3 18:14:40 10° S 18:18:32 57° E 18:22:01 13° NNE
YAOGAN 1 3.9 18:16:06 10° S 18:20:13 43° W 18:24:22 10° NNW
Cosmos 1151 Rocket 3.3 18:17:15 10° N 18:21:27 43° ENE 18:25:38 10° SSE
Cosmos 1943 Rocket 4.2 18:17:31 10° NW 18:22:19 30° WSW 18:27:03 10° SSW
ERS-2 2.0 18:18:41 10° SSE 18:22:20 70° ENE 18:26:02 10° N
CZ-4C R/B 4.0 18:23:24 10° SE 18:24:11 12° SE 18:24:11 12° SE
SL-24 R/B - RUBIN 2 4.2 18:22:51 10° NW 18:27:16 56° WSW 18:31:29 10° SSE
Cosmos 2058 2.8 18:29:37 10° S 18:33:45 68° E 18:36:32 20° NNE
Cosmos 1934 Rocket 4.4 18:30:45 10° N 18:36:42 40° ENE 18:42:37 10° SE
Thor Agena Rocket 3.9 18:35:28 33° ENE 18:37:00 41° E 18:41:53 10° S
Cosmos 909 Rocket 4.0 18:30:34 10° NNW 18:37:25 64° NE 18:42:13 18° SE
BREEZE-M R/B 4.4 18:37:34 10° WNW 18:38:37 18° NW 18:38:37 18° NW
Cosmos 371 Rocket 3.2 18:40:27 10° S 18:45:12 65° ESE 18:46:36 43° NE
Cosmos 44 4.1 18:41:24 10° WSW 18:45:30 41° NW 18:48:03 21° N
Cosmos 1515 Rocket 3.6 18:48:21 10° N 18:52:42 77° W 18:57:01 10° S
Cosmos 2151 3.0 18:48:35 10° SSW 18:52:51 78° W 18:55:25 24° N
Cosmos 2239 Rocket 4.3 18:47:43 10° N 18:53:53 70° E 19:00:00 10° SSE
Cosmos 1500 Rocket 3.8 19:01:24 10° SSW 19:05:50 68° W 19:07:49 32° N
PKM 4.0 19:04:02 10° NW 19:06:36 68° W 19:06:36 68° W
H-2A R/B 4.0 19:04:56 10° S 19:08:32 40° W 19:12:11 10° NNW
USA 81 4.4 19:05:08 10° SSW 19:10:21 65° W 19:15:37 10° N
COSMOS 2406 3.5 19:04:47 10° SW 19:10:28 65° WNW 19:13:27 29° N
Meteor 2-15 4.5 19:08:14 10° SSW 19:14:20 78° W 19:20:28 10° N
Cosmos 2228 Rocket 4.4 19:11:39 10° NNW 19:15:56 40° W 19:20:13 10° SSW
Cosmos 1455 3.9 19:14:37 10° NNW 19:18:05 32° W 19:21:31 10° SSW
Cosmos 2208 Rocket 3.9 19:14:15 10° SSW 19:19:32 87° WNW 19:19:41 84° N
Cosmos 1898 Rocket 4.4 19:24:53 10° NNW 19:28:12 39° NNW 19:28:12 39° NNW
GEOS 3 Rocket 3.8 19:35:23 67° SW 19:35:27 67° SW 19:40:50 10° NW
Lacrosse 5 3.8 19:40:56 10° SSW 19:42:42 22° SSW 19:42:42 22° SSW
CZ-4C R/B 4.3 20:08:32 10° SW 20:09:27 16° SW 20:09:27 16° SW
